| time (UTC) | temp C | wind direction | speed KPH | gust KPH | rain 1hr cm | rain 24hr cm | rain mn cm | humidity % | barometer mb |
| 20260503203024 | 16 | 124 | 9.7 | 37.0 | 0.00 | 0.08 | 0.05 | 52 | 1012.6 |
| 20260503201606 | 16 | 322 | 8.0 | 32.2 | 0.00 | 0.08 | 0.05 | 50 | 1012.9 |
| 20260503200117 | 16 | 248 | 12.9 | 33.8 | 0.00 | 0.08 | 0.05 | 50 | 1013.1 |
| 20260503194548 | 17 | 160 | 9.7 | 33.8 | 0.00 | 0.08 | 0.05 | 49 | 1013.5 |
| 20260503193113 | 17 | 213 | 9.7 | 27.4 | 0.00 | 0.08 | 0.05 | 49 | 1013.9 |
| 20260503191530 | 16 | 229 | 8.0 | 22.5 | 0.00 | 0.08 | 0.05 | 55 | 1014.4 |
| 20260503190038 | 15 | 179 | 9.7 | 32.2 | 0.00 | 0.10 | 0.05 | 61 | 1015.0 |
| 20260503184610 | 15 | 189 | 9.7 | 20.9 | 0.00 | 0.10 | 0.05 | 54 | 1015.0 |
| 20260503183020 | 15 | 178 | 8.0 | 19.3 | 0.00 | 0.10 | 0.05 | 53 | 1015.9 |
| 20260503181609 | 15 | 188 | 9.7 | 20.9 | 0.00 | 0.10 | 0.05 | 55 | 1015.7 |
| 20260503180113 | 15 | 180 | 6.4 | 22.5 | 0.03 | 0.10 | 0.05 | 55 | 1015.5 |
| 20260503174545 | 14 | 209 | 11.3 | 24.1 | 0.03 | 0.10 | 0.05 | 56 | 1015.9 |
| 20260503173113 | 13 | 169 | 9.7 | 22.5 | 0.03 | 0.10 | 0.05 | 58 | 1016.4 |
| 20260503171539 | 13 | 219 | 11.3 | 22.5 | 0.03 | 0.10 | 0.05 | 58 | 1016.8 |
| 20260503150105 | 14 | 178 | 16.1 | 30.6 | 0.00 | 0.10 | 0.03 | 55 | 1018.2 |
| 20260503120126 | 7 | 205 | 4.8 | 17.7 | 0.00 | 0.10 | 0.03 | 69 | 1018.6 |
| 20260503081514 | 5 | 230 | 3.2 | 12.9 | 0.03 | 0.13 | 0.03 | 71 | 1018.3 |
| 20260503071606 | 3 | 201 | 1.6 | 6.4 | 0.00 | 0.10 | 0.00 | 75 | 1018.6 |
| 20260503054514 | 3 | 341 | 0.0 | 3.2 | 0.00 | 0.10 | 0.00 | 75 | 1019.1 |
| 20260503053053 | 3 | 340 | 0.0 | 0.0 | 0.00 | 0.10 | 0.00 | 75 | 1019.2 |
| 20260503051508 | 3 | 341 | 0.0 | 0.0 | 0.00 | 0.10 | 0.00 | 74 | 1019.2 |
| 20260503050032 | 3 | 340 | 0.0 | 0.0 | 0.00 | 0.10 | 0.00 | 74 | 1019.3 |
| 20260503044619 | 4 | 341 | 0.0 | 0.0 | 0.00 | 0.10 | 0.00 | 75 | 1019.3 |
| 20260503043017 | 4 | 341 | 0.0 | 0.0 | 0.00 | 0.10 | 0.00 | 74 | 1019.2 |
| 20260503041613 | 4 | 341 | 0.0 | 0.0 | 0.00 | 0.10 | 0.00 | 74 | 1019.2 |
| 20260503040112 | 4 | 341 | 0.0 | 1.6 | 0.00 | 0.13 | 0.10 | 72 | 1019.2 |
| 20260503034540 | 5 | 341 | 0.0 | 1.6 | 0.00 | 0.13 | 0.10 | 71 | 1019.4 |
| 20260503033118 | 5 | 342 | 0.0 | 0.0 | 0.00 | 0.13 | 0.10 | 71 | 1019.3 |
| 20260503031538 | 5 | 341 | 0.0 | 1.6 | 0.00 | 0.13 | 0.10 | 71 | 1019.4 |
| 20260503030054 | 5 | 341 | 0.0 | 0.0 | 0.00 | 0.13 | 0.10 | 69 | 1019.4 |
| 20260503024505 | 6 | 341 | 0.0 | 3.2 | 0.00 | 0.13 | 0.10 | 69 | 1019.4 |
| 20260503023052 | 6 | 340 | 0.0 | 3.2 | 0.00 | 0.13 | 0.10 | 67 | 1019.4 |
| 20260503021502 | 6 | 341 | 0.0 | 1.6 | 0.00 | 0.13 | 0.10 | 65 | 1019.3 |
| 20260503020013 | 7 | 340 | 0.0 | 1.6 | 0.00 | 0.13 | 0.10 | 62 | 1019.3 |
| 20260503014556 | 7 | 341 | 0.0 | 1.6 | 0.00 | 0.13 | 0.10 | 60 | 1019.2 |
| 20260503013011 | 8 | 342 | 0.0 | 1.6 | 0.00 | 0.13 | 0.10 | 57 | 1019.0 |
| 20260503011605 | 8 | 341 | 0.0 | 1.6 | 0.00 | 0.13 | 0.10 | 55 | 1019.0 |
| 20260503010109 | 10 | 341 | 0.0 | 3.2 | 0.00 | 0.13 | 0.10 | 51 | 1018.9 |
| 20260503004535 | 10 | 340 | 0.0 | 1.6 | 0.00 | 0.13 | 0.10 | 47 | 1018.9 |
| 20260503003105 | 11 | 342 | 0.0 | 4.8 | 0.00 | 0.13 | 0.10 | 44 | 1019.0 |
| 20260503001521 | 11 | 341 | 0.0 | 3.2 | 0.03 | 0.13 | 0.10 | 42 | 1018.8 |
| 20260503000044 | 12 | 341 | 1.6 | 9.7 | 0.03 | 0.13 | 0.10 | 41 | 1018.8 |
| 20260502234615 | 12 | 15 | 3.2 | 12.9 | 0.03 | 0.13 | 0.10 | 40 | 1018.9 |
| 20260502233041 | 12 | 334 | 3.2 | 8.0 | 0.03 | 0.13 | 0.10 | 39 | 1018.9 |
| 20260502231612 | 12 | 336 | 4.8 | 16.1 | 0.00 | 0.10 | 0.08 | 39 | 1018.8 |
| 20260502230008 | 12 | 308 | 3.2 | 16.1 | 0.00 | 0.13 | 0.08 | 38 | 1019.0 |
| 20260502224555 | 12 | 304 | 6.4 | 17.7 | 0.00 | 0.13 | 0.08 | 40 | 1018.9 |
| 20260502223008 | 12 | 274 | 8.0 | 17.7 | 0.00 | 0.13 | 0.08 | 38 | 1019.0 |
| 20260502221548 | 12 | 326 | 6.4 | 19.3 | 0.00 | 0.13 | 0.08 | 39 | 1019.0 |
| 20260502220146 | 12 | 296 | 4.8 | 17.7 | 0.00 | 0.13 | 0.08 | 41 | 1019.1 |
| 20260502214515 | 11 | 338 | 6.4 | 17.7 | 0.00 | 0.13 | 0.08 | 40 | 1019.2 |
| 20260502213104 | 11 | 345 | 9.7 | 17.7 | 0.00 | 0.13 | 0.08 | 39 | 1019.1 |
| 20260502211511 | 11 | 293 | 8.0 | 27.4 | 0.00 | 0.13 | 0.08 | 41 | 1019.0 |
| 20260502210024 | 11 | 358 | 4.8 | 22.5 | 0.00 | 0.13 | 0.08 | 41 | 1019.2 |
| 20260502204615 | 11 | 355 | 6.4 | 16.1 | 0.00 | 0.13 | 0.08 | 41 | 1019.2 |